Regional Weather Roundup
Issued by NWS

Home | Current Version | Previous Version | Graphics & Text | Print | Product List | Glossary On
Versions: 1 2 3 4 5 6 7 8 9 10 11 12 13 14 15 16 17 18 19 20 21 22 23 24 25 26 27 28 29 30 31 32 33 34 35 36 37 38 39 40 41 42 43 44 45 46 47 48 49 50
000
ASUS43 KFSD 270510
RWRSD

WEATHER ROUNDUP FOR SOUTH DAKOTA
NATIONAL WEATHER SERVICE SIOUX FALLS SD
1200 AM CDT SAT MAY 27 2017

NOTE: "FAIR" INDICATES FEW OR NO CLOUDS BELOW 12,000 FEET WITH NO
SIGNIFICANT WEATHER AND/OR OBSTRUCTIONS TO VISIBILITY.


SDZ001>005-009-010-012>017-270600-
NORTHWEST AND NORTH CENTRAL SOUTH DAKOTA

CITY           SKY/WX    TMP DP  RH WIND       PRES   REMARKS
BUFFALO          N/A     51  41  68 W6        29.89R
FAITH            N/A     57  40  52 W5        29.94R
MOBRIDGE       CLOUDY    51  41  68 SE3       29.86R
$$

SDZ012>016-024>037-041>051-057-063-072>074-270600-
SOUTHWEST AND SOUTH CENTRAL SOUTH DAKOTA

CITY           SKY/WX    TMP DP  RH WIND       PRES   REMARKS
RAPID CTY ARPT LGT RAIN  51  49  92 CALM      30.00R
PIERRE         CLOUDY    62  38  40 W9        29.90R
CUSTER         LGT RAIN  43  41  93 CALM      30.03S
ELLSWORTH AFB  LGT RAIN  53  50  90 NW3       30.00R
PHILIP         CLOUDY    54  49  83 W6        29.95S
PINE RIDGE     LGT RAIN  51  50  96 CALM      30.01R
WINNER         LGT RAIN  60  48  64 NW5       29.92F
$$

SDZ004>011-016>023-039-040-270600-
NORTHEAST SOUTH DAKOTA

CITY           SKY/WX    TMP DP  RH WIND       PRES   REMARKS
ABERDEEN       PTCLDY    50  41  71 CALM      29.87S
WATERTOWN      CLEAR     51  46  83 S3        29.88R
BROOKINGS      CLEAR     54  44  69 CALM      29.89S
SISSETON         N/A     52  47  83 W3        29.85S
$$

SDZ017-020-022-023-036>040-048>070-270600-
SOUTHEAST SOUTH DAKOTA

CITY           SKY/WX    TMP DP  RH WIND       PRES   REMARKS
SIOUX FALLS    PTCLDY    53  44  71 CALM      29.89S
HURON          CLOUDY    55  46  71 CALM      29.88S
CHAMBERLAIN    CLOUDY    62  45  53 NW5       29.91S
MITCHELL       CLOUDY    53  47  79 E3        29.90R
YANKTON        CLOUDY    59  47  64 NW3       29.91R
$$

ABBREVIATIONS USED IN REMARKS
   TC - TEMPERATURE IN CELSIUS
  WCI - WIND CHILL INDEX
   HX - HEAT INDEX
  VSB - VISIBILITY




USA.gov is the U.S. government's official web portal to all federal, state and local government web resources and services.